INFORMAÇÕES DO AERODROMO
Icao Aerodromo SBST Nome do Aerodromo Base Aérea de Santos Airport Cidade Guarujá
Código GPS SBST Elevação Média 10 ft Tipo de Aerodromo Aeroporto Médio Porte

INFORMAÇÃO DE PISTA
Pista 17 Comprimento da Pista 4560 ft Largura da Pista 148 ft
Elevação da Pista 0 ft Distância de Area de Escape da Pista 0 ft Orientação da Pista 0
Pista 35 Comprimento da Pista 4560 ft Largura da Pista 148 ft
Elevação da Pista 0 ft Distância de Area de Escape da Pista 0 ft Orientação da Pista 0

FREQUÊNCIAS DO AERODROMO
Tipo APP Nome SAO PAULO Frequência 119.8 MHZ
Tipo TWR Nome TWR Frequência 118.3 MHZ

INFORMAÇÕES DE NAVEGAÇÃO PRÓXIMO AO AERODROMO
Tipo NDB Nome Vicente Frequência 360 KHZ
Tipo NDB Nome Santos Frequência 375 KHZ

Informações de Meteorologia(METAR atual)
METAR DE SBST
ADDS - METARS form results

(1253 UTC 13 December 2018)
Data provider http://aviationweather.gov/metar/data/
 
METAR text: SBST 131200Z 26005KT CAVOK 29/22 Q1015
Conditions at: SBST (SANTOS (BRAZ-AFB, BR) observed 1200 UTC 13 December 2018
Temperature: 29.0°C (84°F)
Dewpoint: 22.0°C (72°F) [RH = 66%]
Pressure (altimeter): 29.97 inches Hg (1015.0 mb)
Winds: from the W (260 degrees) at 6 MPH (5 knots; 2.6 m/s)
Visibility: 6 or more miles (10+ km)
Ceiling: ceiling and visibility are OK
Clouds: unknown
Weather: no significant weather observed at this time

MAPA DO AERODROMO


Desenvolvido por Virtual Airlines Manager




Modificado por Servidor Brasil Amigos